Regional Weather Roundup
Issued by NWS

Home | Current Version | Previous Version | Graphics & Text | Print | Product List | Glossary On
Versions: 1 2 3 4 5 6 7 8 9 10 11 12 13 14 15 16 17 18 19 20 21 22 23 24 25 26 27 28 29 30 31 32 33 34 35 36 37 38 39 40 41 42 43 44 45 46 47 48 49 50
000
ASUS45 KTFX 240610
RWRMT
MONTANA REGIONAL WEATHER ROUNDUP
NATIONAL WEATHER SERVICE GREAT FALLS MT
1200 AM MDT TUE MAY 24 2016

NOTE: "FAIR" INDICATES FEW OR NO CLOUDS BELOW 12000 FEET WITH NO
SIGNIFICANT WEATHER AND/OR OBSTRUCTIONS TO VISIBILITY.

MTZ001>007-043-240700-
WEST OF THE DIVIDE

CITY           SKY/WX    TMP DP  RH WIND       PRES   REMARKS
KALISPELL      LGT RAIN  45  45 100 SE12      29.88S
MISSOULA       LGT RAIN  45  43  93 W3        29.93S
BUTTE          CLOUDY    39  36  89 CALM      29.93S
MULLAN PASS    LGT RAIN  34  34 100 SW6       29.88S VSB 1/4 WCI  29
ANACONDA         N/A     39  37  93 S3        29.92S
DEER LODGE       N/A     41  39  93 CALM      29.93S
EUREKA           N/A     46  43  87 CALM      29.89R
HAMILTON         N/A     45  43  93 S3        29.91F
LIBBY            N/A     46  45  93 CALM      29.89R
PLAINS           N/A     47  42  82 CALM      29.91R
$$

MTZ008-052>055-240700-
SOUTHWEST MONTANA

CITY           SKY/WX    TMP DP  RH WIND       PRES   REMARKS
BOZEMAN        LGT RAIN  42  39  89 E7        29.94S
DILLON         CLOUDY    40  36  86 N5        29.90S
ENNIS          CLOUDY    41  37  87 CALM      29.97R
TWIN BRIDGES     N/A     43  36  76 N7        29.91R
$$

MTZ009-010-012-014-046-048-049-054-240700-
EAST SLOPES AND CENTRAL MONTANA

CITY           SKY/WX    TMP DP  RH WIND       PRES   REMARKS
CUT BANK       CLOUDY    40  38  93 W9        29.87S
GREAT FALLS    CLOUDY    42  40  92 CALM      29.89R
MALMSTROM AFB  MOCLDY    42  42 100 SW3       29.89R
HELENA         CLOUDY    46  37  71 W5        29.90R
CHOTEAU          N/A     41  41 100 CALM      29.90R
CONRAD           N/A     43  43 100 W3        29.91S
$$

MTZ011-013-016-021-045-047-050-051-240700-
NORTH CENTRAL MONTANA

CITY           SKY/WX    TMP DP  RH WIND       PRES   REMARKS
HAVRE          CLOUDY    48  42  80 W9        29.83R
LEWISTOWN      LGT RAIN  43  38  82 NW7       29.88R
N BAR RANCH    CLOUDY    39  36  87 NW7       29.89R
CHINOOK          N/A     48  43  81 W8        29.81S
$$

MTZ017>020-022>027-061-062-240700-
NORTHEAST MONTANA

CITY           SKY/WX    TMP DP  RH WIND       PRES   REMARKS
GLASGOW        PTCLDY    47  41  80 W7        29.77S
JORDAN           N/A     46  41  82 W6        29.82R
SIDNEY         CLEAR     50  40  68 W5        29.78S
WOLF POINT     PTCLDY    52  45  77 W7        29.78R
PLENTYWOOD       N/A     48  43  81 SW8       29.74S
POPLAR           N/A     50  43  76 SW3       29.78R
SCOBEY           N/A     46  31  56 SW12      29.74R
$$

MTZ028>42-056>058-240700-
SOUTHCENTRAL AND SOUTHEAST MONTANA

CITY           SKY/WX    TMP DP  RH WIND       PRES   REMARKS
BAKER          CLOUDY    48  35  60 NW5       29.83S
BILLINGS       MOCLDY    49  38  65 NW5       29.88R
LIVINGSTON     CLOUDY    42  35  76 W6        29.90F
MILES CITY     PTCLDY    50  40  68 W7        29.84R
EKALAKA          N/A     49  32  52 SW2       29.85R
FORSYTH          N/A     52  39  62 W6        29.85S
$$

REGIONAL REPORTS...DAKOTAS

CITY           SKY/WX    TMP DP  RH WIND       PRES   REMARKS
WILLISTON      CLEAR     49  39  68 SW7       29.77R
MINOT          CLEAR     54  44  69 SW7       29.75R
DICKINSON      CLEAR     41  34  76 S3        29.78S
BEACH            N/A     39  37  93 S6        29.85R
CROSBY           N/A     46  43  87 S8        29.77R
WATFORD CITY     N/A     46  37  71 SW5       29.79R
BISMARCK       CLOUDY    59  47  64 SE12      29.74F
GRAND FORKS    CLOUDY    62  51  67 E7        29.71S
FARGO          CLOUDY    60  49  66 W9        29.71R
BUFFALO SD       N/A     53  35  50 N13       29.76R
RAPID CITY     CLOUDY    59  33  37 N14       29.82R
$$

REGIONAL REPORTS...WYOMING/IDAHO/WASHINGTON

CITY           SKY/WX    TMP DP  RH WIND       PRES   REMARKS
GILLETTE       CLEAR     34  30  85 S3        29.88S
SHERIDAN       PTCLDY    43  35  73 CALM      29.88S
BUFFALO WY     CLEAR     46  32  58 NW7       29.91R
CODY           CLEAR     43  34  70 CALM      29.88S
YELLOWSTONE LA   N/A     29  25  85 CALM      29.97S
IDAHO FALLS    CLEAR     45  35  68 S7        29.88S
SALMON         CLOUDY    46  37  71 S6        29.87R
BOISE          PTCLDY    58  35  42 CALM      29.82S
SPOKANE        CLOUDY    51  45  79 SE6       29.85S
$$

REGIONAL REPORTS...ALBERTA

CITY           SKY/WX    TMP DP  RH WIND       PRES   REMARKS
EDMONTON       CLOUDY    46  41  81 NE3       29.85R
CALGARY        PTCLDY    45  39  81 W5        29.86S
LETHBRIDGE     CLOUDY    43  41  93 W8        29.86S
MEDICINE HAT   CLOUDY    48  45  87 W15       29.79S
$$

REGIONAL REPORTS...SASKATCHEWAN

CITY           SKY/WX    TMP DP  RH WIND       PRES   REMARKS
SWIFT CURRENT  CLOUDY    48  46  93 NW6       29.69R
REGINA         MOCLDY    48  45  87 S8        29.67S
SASKATOON      LGT RAIN  52  52 100 NE17      29.71R
$$



USA.gov is the U.S. government's official web portal to all federal, state and local government web resources and services.